Skip Page Navigation
NASA JPL Caltech
NASA Logo - Jet Propulsion Laboratory + View the NASA Portal
+ Center for Near-Earth Object Studies
JPL Home Earth Solar System Stars & Galaxies Technology
JPL Solar System Dynamics
BODIES ORBITS EPHEMERIDES TOOLS PHYSICAL DATA DISCOVERY FAQ SITE MAP
JPL Small-Body Database Browser
Search: [ help ]  
452066 (2014 OP324)
Classification: Main-belt Asteroid          SPK-ID: 2452066
Ephemeris | Orbit Diagram | Orbital Elements | Mission Design | Physical Parameters | Discovery Circumstances ]

[ show orbit diagram ]
Orbital Elements at Epoch 2459000.5 (2020-May-31.0) TDB
Reference: JPL 16 (heliocentric ecliptic J2000)
 Element Value Uncertainty (1-sigma)   Units 
e .1055193240183626 8.4652e-08  
a 2.722415668967733 4.1159e-08 au
q 2.435148207881259 2.4398e-07 au
i 6.504218864199027 8.0381e-06 deg
node 112.5935591154514 5.7006e-05 deg
peri 322.2304548626221 6.8265e-05 deg
M 348.0013431473675 3.354e-05 deg
tp 2459055.183992220442
(2020-Jul-24.68399222)
0.00015308 TDB
period 1640.70340881861
4.49
3.7207e-05
1.019e-07
d
yr
n .2194180849902776 4.9759e-09 deg/d
Q 3.009683130054206 4.5502e-08 au
  Orbit Determination Parameters
   # obs. used (total)      97  
   data-arc span      8450 days (23.13 yr)  
   first obs. used      1994-01-17  
   last obs. used      2017-03-07  
   planetary ephem.      DE431  
   SB-pert. ephem.      SB431-N16  
   condition code      0  
   norm. resid. RMS      .6306  
   source      ORB  
   producer      Otto Matic  
   solution date      2017-Apr-09 10:53:38  

Additional Information
 Earth MOID = 1.45428 au 
 Jupiter MOID = 2.21028 au 
 T_jup = 3.341 
[ show covariance matrix ]

Ephemeris | Orbit Diagram | Orbital Elements | Mission Design | Physical Parameters | Discovery Circumstances ]

Physical Parameter Table
Parameter Symbol Value Units Sigma Reference Notes
absolute magnitude H 17.1   n/a MPO495253  

452066 (2014 OP324)          Discovered 2006-Nov-19 by CSS at Catalina
Reference: Last Updated: 2015-11-30

Alternate Designations
 2014 OP324 = 2006 WX106 = 2012 BB46 = 2012 BW153 
Ephemeris | Orbit Diagram | Orbital Elements | Mission Design | Physical Parameters | Discovery Circumstances ]
ABOUT SSD CREDITS/AWARDS PRIVACY/COPYRIGHT GLOSSARY LINKS
FirstGov 2020-Aug-04 18:10 UT
(server date/time)  
NASA Home Page
Site Manager:   Ryan S. Park
Webmaster  Alan B. Chamberlin